Zurück zum Katalog

ICEYE-X62

AktivWissenschaftSSO
NORAD 66755·PAYLOAD·🇵🇱 Poland

Gestartet Nov 28, 2025 von Vandenberg Space Force Base

Loading…

Nächste Überflüge (nächste 24 Stunden)

TLE

AktuellSource: Space-Track

Epoche: Sep 14, 2026, 04:16 UTC

1 66755U 25276CT  26257.17819815  .00001384  00000-0  87929-4 0  9998
2 66755  97.4124 326.5867 0003891  71.9781 288.1873 15.10428421 43764

Verfolge ICEYE-X62 in Echtzeit mit AllMySat

Download on the App Store